Flag for Germany Weather past 2 weeks in Baden-Baden, Baden-Württemberg, Germany

Now
59 °F

Clear.


Feels Like: 59 °F
Forecast: 52 / 66 °F
Wind: 2 mph from Southwest

Location: Karlsruhe - Baden Wurttemberg

Current Time: May 24, 2015 at 11:55:46 PM

Latest Report: May 24, 2015 at 11:20 PM


Visibility: 10 mi

Pressure: 30.04 "Hg

Humidity: 77%

Dew point: 52 °F

Location of Baden-BadenLocation

Historic Weather in Baden-Baden — Graph

°F

Baden-Baden temperature yesterday

Maximum temperature yesterday: 70 °F (at 3:20 PM)
Minimum temperature yesterday: 45 °F (at 4:50 AM)
Average temperature yesterday: 61 °F

Past Weeks' High & Low Weather Summary

 TemperatureHumidityPressure
High84 °F (May 12, 2:20 PM)94% (May 11, 4:50 AM)30.36 "Hg (May 11, 4:50 AM)
Low39 °F (May 22, 4:50 AM)26% (May 22, 4:50 PM)29.71 "Hg (May 18, 7:50 PM)
Average61 °F60%30.09 "Hg
* Reported May 9 10:20 PM — May 24 10:20 PM, Baden-Baden, Weather by CustomWeather, © 2015

Note: Actual official high and low records may vary slightly from our data, if they occured in-between our weather recording intervals... More about our weather records

Advertising

Baden-Baden weather history for previous 24 hours

 ConditionsComfort  
Time TempWeatherWind HumidityBarometerVisibility
10:20 PM
Sun, May 24
63 °FClear.2 mph64%30.04 "Hg10 mi
9:50 PM63 °FClear.1 mph64%30.01 "Hg6 mi
9:20 PM63 °FSunny.1 mph64%30.01 "Hg10 mi
8:50 PM63 °FSunny.2 mph64%30.01 "Hg10 mi
8:20 PM64 °FSunny.2 mph60%30.01 "Hg10 mi
7:50 PM66 °FSunny.5 mph52%30.01 "Hg10 mi
7:20 PM66 °FSunny.2 mph52%30.01 "Hg10 mi
6:50 PM68 °FScattered showers. Scattered clouds.5 mph43%30.01 "HgN/A
6:20 PM68 °FScattered showers. Scattered clouds.3 mph43%30.01 "HgN/A
5:50 PM68 °FSunny.7 mph46%30.04 "Hg10 mi
5:20 PM70 °FSunny.7 mph43%30.04 "Hg10 mi
4:50 PM70 °FScattered clouds.6 mph46%30.04 "HgN/A
4:20 PM70 °FScattered clouds.6 mph43%30.04 "HgN/A
3:50 PM70 °FMild.6 mph46%30.04 "HgN/A
3:20 PM72 °FPassing clouds.8 mph44%30.04 "HgN/A
2:50 PM70 °FPassing clouds.8 mph46%30.04 "HgN/A
2:20 PM70 °FPassing clouds.8 mph46%30.04 "HgN/A
1:50 PM70 °FMild.9 mph50%30.07 "HgN/A
1:20 PM68 °FPassing clouds.10 mph56%30.07 "HgN/A
12:50 PM68 °FSunny.12 mph56%30.07 "Hg10 mi
12:20 PM66 °FPassing clouds.10 mph60%30.07 "HgN/A
11:50 AM66 °FSunny.9 mph60%30.07 "Hg10 mi
11:20 AM64 °FPassing clouds.8 mph64%30.07 "HgN/A
10:50 AM63 °FPassing clouds.10 mph68%30.07 "HgN/A
10:20 AM63 °FSunny.9 mph68%30.07 "Hg10 mi
9:50 AM61 °FSunny.8 mph72%30.07 "Hg10 mi
9:20 AM61 °FSunny.8 mph72%30.07 "Hg10 mi
8:50 AM59 °FSunny.8 mph77%30.07 "Hg10 mi
8:20 AM59 °FSunny.8 mph72%30.07 "Hg10 mi
7:50 AM59 °FPassing clouds.6 mph72%30.07 "HgN/A
7:20 AM57 °FSunny.7 mph77%30.07 "Hg10 mi
6:50 AM57 °FSunny.5 mph72%30.07 "Hg10 mi
6:20 AM57 °FClear.6 mph72%30.07 "Hg10 mi
5:50 AM55 °FClear.6 mph77%30.07 "Hg10 mi
5:20 AM57 °FClear.6 mph72%30.04 "Hg10 mi
4:50 AM57 °FClear.6 mph72%30.04 "Hg10 mi
12:20 AM59 °FClear.3 mph63%30.07 "Hg10 mi
11:50 PM
Sat, May 23
61 °FClear.2 mph59%30.07 "Hg10 mi
11:20 PM61 °FClear.5 mph59%30.07 "Hg10 mi
Weather by CustomWeather, © 2015

See weather overviewHow to use our weather pages